Time,TemperatureF,DewpointF,PressureIn,WindDirection,WindDirectionDegrees,WindSpeedMPH,WindSpeedGustMPH,Humidity,HourlyPrecipIn,Conditions,Clouds,dailyrainin,SoftwareType,DateUTC
2013-04-09 00:00:00,15.8,3.3,29.88,NW,321,0.0,0.0,57,0.00,,---,0.00,VWS V14.01,2013-04-09 06:00:00,
2013-04-09 00:05:00,15.8,3.7,29.88,NW,321,0.0,0.0,58,0.00,,---,0.00,VWS V14.01,2013-04-09 06:05:00,
2013-04-09 00:10:00,16.0,4.6,29.88,NW,321,0.0,0.0,60,0.00,,---,0.00,VWS V14.01,2013-04-09 06:10:00,
2013-04-09 00:15:00,16.2,3.6,29.88,NW,319,0.0,0.0,57,0.00,,---,0.00,VWS V14.01,2013-04-09 06:15:00,
2013-04-09 00:20:00,16.2,3.6,29.88,NW,319,0.0,0.0,57,0.00,,---,0.00,VWS V14.01,2013-04-09 06:20:00,
2013-04-09 00:25:00,16.2,4.4,29.88,NW,319,0.0,0.0,59,0.00,,---,0.00,VWS V14.01,2013-04-09 06:25:00,
2013-04-09 00:30:00,16.3,4.5,29.88,NE,51,0.0,0.0,59,0.00,,---,0.00,VWS V14.01,2013-04-09 06:30:00,
2013-04-09 00:35:00,16.2,4.0,29.88,ESE,117,4.0,4.5,58,0.00,,---,0.00,VWS V14.01,2013-04-09 06:35:00,
2013-04-09 00:40:00,16.0,3.8,29.88,East,101,2.2,2.2,58,0.00,,---,0.00,VWS V14.01,2013-04-09 06:40:00,
2013-04-09 00:45:00,16.2,4.4,29.88,East,96,3.1,4.0,59,0.00,,---,0.00,VWS V14.01,2013-04-09 06:45:00,
2013-04-09 00:50:00,16.0,4.2,29.88,ENE,76,3.6,4.0,59,0.00,,---,0.00,VWS V14.01,2013-04-09 06:50:00,
2013-04-09 00:55:00,15.8,4.0,29.88,East,81,0.0,0.0,59,0.00,,---,0.00,VWS V14.01,2013-04-09 06:55:00,
2013-04-09 01:00:00,15.4,3.7,29.88,ESE,122,0.0,3.1,59,0.00,,---,0.00,VWS V14.01,2013-04-09 07:00:00,
2013-04-09 01:05:00,15.4,4.1,29.91,East,87,3.1,3.1,60,0.00,,---,0.00,VWS V14.01,2013-04-09 07:05:00,
2013-04-09 01:10:00,15.4,4.4,29.91,East,86,0.0,0.0,61,0.00,,---,0.00,VWS V14.01,2013-04-09 07:10:00,
2013-04-09 01:15:00,15.3,4.2,29.91,East,98,0.0,0.0,61,0.00,,---,0.00,VWS V14.01,2013-04-09 07:15:00,
2013-04-09 01:20:00,15.3,4.2,29.91,East,84,4.9,4.9,61,0.00,,---,0.00,VWS V14.01,2013-04-09 07:20:00,
2013-04-09 01:25:00,15.3,4.6,29.91,ENE,74,0.0,0.0,62,0.00,,---,0.00,VWS V14.01,2013-04-09 07:25:00,
2013-04-09 01:30:00,15.1,4.1,29.91,East,87,2.7,4.9,61,0.00,,---,0.00,VWS V14.01,2013-04-09 07:30:00,
2013-04-09 01:35:00,15.3,4.9,29.91,East,88,0.0,2.7,63,0.00,,---,0.00,VWS V14.01,2013-04-09 07:35:00,
2013-04-09 01:40:00,15.3,4.6,29.91,ESE,110,3.1,4.0,62,0.00,,---,0.00,VWS V14.01,2013-04-09 07:40:00,
2013-04-09 01:45:00,15.3,4.6,29.91,ESE,110,0.0,0.0,62,0.00,,---,0.00,VWS V14.01,2013-04-09 07:45:00,
2013-04-09 01:50:00,15.4,5.1,29.88,ESE,110,0.0,0.0,63,0.00,,---,0.00,VWS V14.01,2013-04-09 07:50:00,
2013-04-09 01:55:00,15.4,5.4,29.88,ESE,110,0.0,0.0,64,0.00,,---,0.00,VWS V14.01,2013-04-09 07:55:00,
2013-04-09 02:00:00,15.4,4.8,29.88,ESE,110,0.0,0.0,62,0.00,,---,0.00,VWS V14.01,2013-04-09 08:00:00,
2013-04-09 02:05:00,15.4,4.8,29.91,SE,131,0.0,0.0,62,0.00,,---,0.00,VWS V14.01,2013-04-09 08:05:00,
2013-04-09 02:10:00,15.3,3.9,29.91,ESE,112,4.0,4.9,60,0.00,,---,0.00,VWS V14.01,2013-04-09 08:10:00,
2013-04-09 02:15:00,15.1,4.1,29.91,East,97,2.7,2.7,61,0.00,,---,0.00,VWS V14.01,2013-04-09 08:15:00,
2013-04-09 02:20:00,14.9,4.2,29.91,ESE,112,0.0,3.6,62,0.00,,---,0.00,VWS V14.01,2013-04-09 08:20:00,
2013-04-09 02:25:00,14.9,4.6,29.91,ESE,112,0.0,0.0,63,0.00,,---,0.00,VWS V14.01,2013-04-09 08:25:00,
2013-04-09 02:30:00,14.9,4.6,29.91,ESE,112,0.0,0.0,63,0.00,,---,0.00,VWS V14.01,2013-04-09 08:30:00,
2013-04-09 02:35:00,14.9,4.2,29.91,East,99,3.6,3.6,62,0.00,,---,0.00,VWS V14.01,2013-04-09 08:35:00,
2013-04-09 02:40:00,14.9,4.2,29.91,ESE,104,0.0,0.0,62,0.00,,---,0.00,VWS V14.01,2013-04-09 08:40:00,
2013-04-09 02:45:00,14.9,4.2,29.91,ESE,113,0.0,0.0,62,0.00,,---,0.00,VWS V14.01,2013-04-09 08:45:00,
2013-04-09 02:50:00,14.9,4.6,29.91,ESE,113,0.0,0.0,63,0.00,,---,0.00,VWS V14.01,2013-04-09 08:50:00,
2013-04-09 02:55:00,14.9,4.6,29.91,ESE,113,0.0,0.0,63,0.00,,---,0.00,VWS V14.01,2013-04-09 08:55:00,
2013-04-09 03:00:00,14.9,3.9,29.91,SE,136,3.6,4.9,61,0.00,,---,0.00,VWS V14.01,2013-04-09 09:00:00,
2013-04-09 03:05:00,14.9,4.2,29.88,SE,136,0.0,0.0,62,0.00,,---,0.00,VWS V14.01,2013-04-09 09:05:00,
2013-04-09 03:10:00,14.9,4.9,29.88,SE,136,0.0,0.0,64,0.00,,---,0.00,VWS V14.01,2013-04-09 09:10:00,
2013-04-09 03:15:00,14.9,5.3,29.88,SE,133,0.0,0.0,65,0.00,,---,0.00,VWS V14.01,2013-04-09 09:15:00,
2013-04-09 03:20:00,14.9,4.9,29.88,SE,133,0.0,0.0,64,0.00,,---,0.00,VWS V14.01,2013-04-09 09:20:00,
2013-04-09 03:25:00,14.9,4.9,29.88,SE,133,0.0,0.0,64,0.00,,---,0.00,VWS V14.01,2013-04-09 09:25:00,
2013-04-09 03:30:00,14.5,4.6,29.88,SE,133,0.0,0.0,64,0.00,,---,0.00,VWS V14.01,2013-04-09 09:30:00,
2013-04-09 03:35:00,14.2,3.9,29.91,SE,133,0.0,0.0,63,0.00,,---,0.00,VWS V14.01,2013-04-09 09:35:00,
2013-04-09 03:40:00,14.2,4.2,29.91,SE,132,0.0,0.0,64,0.00,,---,0.00,VWS V14.01,2013-04-09 09:40:00,
2013-04-09 03:45:00,14.5,4.9,29.91,SE,132,0.0,0.0,65,0.00,,---,0.00,VWS V14.01,2013-04-09 09:45:00,
2013-04-09 03:50:00,14.9,4.2,29.91,SE,132,0.0,0.0,62,0.00,,---,0.00,VWS V14.01,2013-04-09 09:50:00,
2013-04-09 03:55:00,14.9,5.3,29.91,SE,132,0.0,0.0,65,0.00,,---,0.00,VWS V14.01,2013-04-09 09:55:00,
2013-04-09 04:00:00,14.9,4.9,29.91,SE,132,0.0,0.0,64,0.00,,---,0.00,VWS V14.01,2013-04-09 10:00:00,
2013-04-09 04:05:00,15.1,5.1,29.91,SE,132,0.0,0.0,64,0.00,,---,0.00,VWS V14.01,2013-04-09 10:05:00,
2013-04-09 04:10:00,14.5,4.2,29.91,SE,132,0.0,0.0,63,0.00,,---,0.00,VWS V14.01,2013-04-09 10:10:00,
2013-04-09 04:15:00,14.2,3.6,29.91,SE,132,0.0,0.0,62,0.00,,---,0.00,VWS V14.01,2013-04-09 10:15:00,
2013-04-09 04:20:00,13.6,3.4,29.91,SE,132,0.0,0.0,63,0.00,,---,0.00,VWS V14.01,2013-04-09 10:20:00,
2013-04-09 04:25:00,13.5,3.2,29.91,SE,132,0.0,0.0,63,0.00,,---,0.00,VWS V14.01,2013-04-09 10:25:00,
2013-04-09 04:30:00,14.2,5.9,29.91,SE,132,0.0,0.0,69,0.00,,---,0.00,VWS V14.01,2013-04-09 10:30:00,
2013-04-09 04:35:00,14.0,6.0,29.91,SE,132,0.0,0.0,70,0.00,,---,0.00,VWS V14.01,2013-04-09 10:35:00,
2013-04-09 04:40:00,13.6,5.7,29.91,SE,132,0.0,0.0,70,0.00,,---,0.00,VWS V14.01,2013-04-09 10:40:00,
2013-04-09 04:45:00,13.5,5.5,29.91,SE,132,0.0,0.0,70,0.00,,---,0.00,VWS V14.01,2013-04-09 10:45:00,
2013-04-09 04:50:00,13.1,5.2,29.91,SE,132,0.0,0.0,70,0.00,,---,0.00,VWS V14.01,2013-04-09 10:50:00,
2013-04-09 04:55:00,13.1,5.2,29.91,SE,136,0.0,0.0,70,0.00,,---,0.00,VWS V14.01,2013-04-09 10:55:00,
2013-04-09 05:00:00,12.9,5.0,29.91,SE,136,0.0,0.0,70,0.00,,---,0.00,VWS V14.01,2013-04-09 11:00:00,
2013-04-09 05:05:00,12.7,4.8,29.91,SE,141,0.0,0.0,70,0.00,,---,0.00,VWS V14.01,2013-04-09 11:05:00,
2013-04-09 05:10:00,12.7,4.8,29.91,South,189,0.0,0.0,70,0.00,,---,0.00,VWS V14.01,2013-04-09 11:10:00,
2013-04-09 05:15:00,12.6,4.7,29.91,South,189,0.0,0.0,70,0.00,,---,0.00,VWS V14.01,2013-04-09 11:15:00,
2013-04-09 05:20:00,12.6,4.7,29.93,South,189,0.0,0.0,70,0.00,,---,0.00,VWS V14.01,2013-04-09 11:20:00,
2013-04-09 05:25:00,12.6,4.7,29.93,SW,222,0.0,0.0,70,0.00,,---,0.00,VWS V14.01,2013-04-09 11:25:00,
2013-04-09 05:30:00,12.4,4.5,29.93,SW,222,0.0,0.0,70,0.00,,---,0.00,VWS V14.01,2013-04-09 11:30:00,
2013-04-09 05:35:00,12.2,4.3,29.91,SW,222,0.0,0.0,70,0.00,,---,0.00,VWS V14.01,2013-04-09 11:35:00,
2013-04-09 05:41:00,12.2,4.3,29.91,SW,222,0.0,0.0,70,0.00,,---,0.00,VWS V14.01,2013-04-09 11:41:00,
2013-04-09 05:46:00,12.2,4.3,29.91,SW,222,0.0,0.0,70,0.00,,---,0.00,VWS V14.01,2013-04-09 11:46:00,
2013-04-09 05:51:00,12.0,4.1,29.93,SW,222,0.0,0.0,70,0.00,,---,0.00,VWS V14.01,2013-04-09 11:51:00,
2013-04-09 05:56:00,11.7,3.8,29.93,SW,222,0.0,0.0,70,0.00,,---,0.00,VWS V14.01,2013-04-09 11:56:00,
2013-04-09 06:00:00,11.5,3.6,29.93,SW,222,0.0,0.0,70,0.00,,---,0.00,VWS V14.01,2013-04-09 12:00:00,
2013-04-09 06:05:00,11.5,3.6,29.93,SW,222,0.0,0.0,70,0.00,,---,0.00,VWS V14.01,2013-04-09 12:05:00,
2013-04-09 06:10:00,11.5,3.6,29.93,SW,222,0.0,0.0,70,0.00,,---,0.00,VWS V14.01,2013-04-09 12:10:00,
2013-04-09 06:15:00,11.3,3.4,29.93,West,268,2.7,4.0,70,0.00,,---,0.00,VWS V14.01,2013-04-09 12:15:00,
2013-04-09 06:20:00,11.1,3.3,29.93,West,260,3.1,4.5,70,0.00,,---,0.00,VWS V14.01,2013-04-09 12:20:00,
2013-04-09 06:26:00,11.1,3.3,29.93,West,271,4.0,4.0,70,0.00,,---,0.00,VWS V14.01,2013-04-09 12:26:00,
2013-04-09 06:31:00,10.9,3.1,29.93,West,268,2.7,3.1,70,0.00,,---,0.00,VWS V14.01,2013-04-09 12:31:00,
2013-04-09 06:36:00,10.8,2.9,29.93,WSW,239,0.0,0.0,70,0.00,,---,0.00,VWS V14.01,2013-04-09 12:36:00,
2013-04-09 06:41:00,10.9,3.1,29.93,WSW,254,3.6,5.4,70,0.00,,---,0.00,VWS V14.01,2013-04-09 12:41:00,
2013-04-09 06:46:00,10.9,3.1,29.93,West,259,3.6,3.6,70,0.00,,---,0.00,VWS V14.01,2013-04-09 12:46:00,
2013-04-09 06:51:00,10.9,3.1,29.93,WSW,245,4.0,4.0,70,0.00,,---,0.00,VWS V14.01,2013-04-09 12:51:00,
2013-04-09 06:56:00,10.9,3.1,29.93,WSW,245,0.0,2.7,70,0.00,,---,0.00,VWS V14.01,2013-04-09 12:56:00,
2013-04-09 07:01:00,10.9,3.1,29.93,WSW,245,0.0,0.0,70,0.00,,---,0.00,VWS V14.01,2013-04-09 13:01:00,
2013-04-09 07:06:00,10.8,2.9,29.93,WSW,245,0.0,0.0,70,0.00,,---,0.00,VWS V14.01,2013-04-09 13:06:00,
2013-04-09 07:11:00,10.8,2.9,29.93,WSW,245,0.0,0.0,70,0.00,,---,0.00,VWS V14.01,2013-04-09 13:11:00,
2013-04-09 07:16:00,10.8,2.9,29.93,WSW,245,0.0,0.0,70,0.00,,---,0.00,VWS V14.01,2013-04-09 13:16:00,
2013-04-09 07:21:00,10.9,3.1,29.93,WSW,245,0.0,0.0,70,0.00,,---,0.00,VWS V14.01,2013-04-09 13:21:00,
2013-04-09 07:26:00,10.9,3.1,29.93,WSW,245,0.0,0.0,70,0.00,,---,0.00,VWS V14.01,2013-04-09 13:26:00,
2013-04-09 07:31:00,11.1,3.3,29.93,WSW,245,0.0,0.0,70,0.00,,---,0.00,VWS V14.01,2013-04-09 13:31:00,
2013-04-09 07:36:00,11.1,3.3,29.93,WSW,245,0.0,0.0,70,0.00,,---,0.00,VWS V14.01,2013-04-09 13:36:00,
2013-04-09 07:41:00,11.3,3.4,29.93,WSW,249,0.0,0.0,70,0.00,,---,0.00,VWS V14.01,2013-04-09 13:41:00,
2013-04-09 07:46:00,11.3,3.4,29.93,West,268,0.0,0.0,70,0.00,,---,0.00,VWS V14.01,2013-04-09 13:46:00,
2013-04-09 07:51:00,11.7,3.8,29.96,WNW,285,3.6,3.6,70,0.00,,---,0.00,VWS V14.01,2013-04-09 13:51:00,
2013-04-09 07:56:00,11.7,3.8,29.96,West,271,4.0,4.0,70,0.00,,---,0.00,VWS V14.01,2013-04-09 13:56:00,
2013-04-09 08:01:00,11.8,4.0,29.96,West,262,3.1,3.1,70,0.00,,---,0.00,VWS V14.01,2013-04-09 14:01:00,
2013-04-09 08:06:00,12.0,4.1,29.96,West,260,0.0,0.0,70,0.00,,---,0.00,VWS V14.01,2013-04-09 14:06:00,
2013-04-09 08:11:00,12.4,4.5,29.96,West,260,0.0,0.0,70,0.00,,---,0.00,VWS V14.01,2013-04-09 14:11:00,
2013-04-09 08:16:00,12.7,4.8,29.96,West,278,0.0,0.0,70,0.00,,---,0.00,VWS V14.01,2013-04-09 14:16:00,
2013-04-09 08:21:00,13.3,5.3,29.96,West,278,0.0,0.0,70,0.00,,---,0.00,VWS V14.01,2013-04-09 14:21:00,
2013-04-09 08:26:00,13.5,5.5,29.96,West,272,2.2,3.1,70,0.00,,---,0.00,VWS V14.01,2013-04-09 14:26:00,
2013-04-09 08:31:00,13.6,5.7,29.96,West,281,0.0,0.0,70,0.00,,---,0.00,VWS V14.01,2013-04-09 14:31:00,
2013-04-09 08:36:00,14.0,3.7,29.96,WNW,286,0.0,2.7,63,0.00,,---,0.00,VWS V14.01,2013-04-09 14:36:00,
2013-04-09 08:41:00,14.7,4.4,29.96,WNW,298,0.0,0.0,63,0.00,,---,0.00,VWS V14.01,2013-04-09 14:41:00,
2013-04-09 08:46:00,14.9,4.6,29.96,WNW,298,0.0,0.0,63,0.00,,---,0.00,VWS V14.01,2013-04-09 14:46:00,
2013-04-09 08:51:00,15.1,4.4,29.96,WNW,298,0.0,0.0,62,0.00,,---,0.00,VWS V14.01,2013-04-09 14:51:00,
2013-04-09 08:56:00,16.0,5.3,29.96,NNW,343,0.0,0.0,62,0.00,,---,0.00,VWS V14.01,2013-04-09 14:56:00,
2013-04-09 09:01:00,17.6,6.8,29.96,NNE,18,0.0,2.2,62,0.00,,---,0.00,VWS V14.01,2013-04-09 15:01:00,
2013-04-09 09:06:00,18.1,6.2,29.96,NNE,18,0.0,0.0,59,0.00,,---,0.00,VWS V14.01,2013-04-09 15:06:00,
2013-04-09 09:11:00,18.5,6.2,29.96,NNE,18,0.0,0.0,58,0.00,,---,0.00,VWS V14.01,2013-04-09 15:11:00,
2013-04-09 09:16:00,19.0,5.9,29.96,NE,46,3.1,4.0,56,0.00,,---,0.00,VWS V14.01,2013-04-09 15:16:00,
2013-04-09 09:21:00,19.8,6.6,29.96,NE,46,0.0,0.0,56,0.00,,---,0.00,VWS V14.01,2013-04-09 15:21:00,
2013-04-09 09:26:00,20.1,6.6,29.96,NE,46,0.0,0.0,55,0.00,,---,0.00,VWS V14.01,2013-04-09 15:26:00,
2013-04-09 09:31:00,20.8,6.4,29.96,NE,51,2.7,2.7,53,0.00,,---,0.00,VWS V14.01,2013-04-09 15:31:00,
2013-04-09 09:36:00,21.4,5.2,29.96,ESE,107,0.0,2.7,49,0.00,,---,0.00,VWS V14.01,2013-04-09 15:36:00,
2013-04-09 09:41:00,21.2,5.0,29.96,ENE,64,0.0,0.0,49,0.00,,---,0.00,VWS V14.01,2013-04-09 15:41:00,
2013-04-09 09:46:00,21.6,4.9,29.96,East,95,0.0,0.0,48,0.00,,---,0.00,VWS V14.01,2013-04-09 15:46:00,
2013-04-09 09:51:00,21.7,5.1,29.96,NE,42,3.1,4.0,48,0.00,,---,0.00,VWS V14.01,2013-04-09 15:51:00,
2013-04-09 09:56:00,21.7,4.6,29.96,ENE,64,4.9,5.8,47,0.00,,---,0.00,VWS V14.01,2013-04-09 15:56:00,
2013-04-09 10:01:00,22.3,5.1,29.96,ENE,62,5.8,5.8,47,0.00,,---,0.00,VWS V14.01,2013-04-09 16:01:00,
2013-04-09 10:06:00,22.8,5.6,29.93,East,85,3.1,3.6,47,0.00,,---,0.00,VWS V14.01,2013-04-09 16:06:00,
2013-04-09 10:11:00,23.4,5.7,29.93,NE,48,0.0,0.0,46,0.00,,---,0.00,VWS V14.01,2013-04-09 16:11:00,
2013-04-09 10:16:00,23.7,5.5,29.93,NE,45,5.8,5.8,45,0.00,,---,0.00,VWS V14.01,2013-04-09 16:16:00,
2013-04-09 10:21:00,23.4,5.2,29.96,NNE,18,2.7,3.6,45,0.00,,---,0.00,VWS V14.01,2013-04-09 16:21:00,
2013-04-09 10:26:00,23.2,5.0,29.96,NE,56,5.4,5.4,45,0.00,,---,0.00,VWS V14.01,2013-04-09 16:26:00,
2013-04-09 10:31:00,23.7,5.5,29.96,ENE,58,3.1,3.6,45,0.00,,---,0.00,VWS V14.01,2013-04-09 16:31:00,
2013-04-09 10:36:00,24.6,6.3,29.96,NE,56,3.6,4.9,45,0.00,,---,0.00,VWS V14.01,2013-04-09 16:36:00,
2013-04-09 10:41:00,25.2,5.8,29.96,NE,46,3.6,4.5,43,0.00,,---,0.00,VWS V14.01,2013-04-09 16:41:00,
2013-04-09 10:46:00,25.9,6.5,29.96,NNE,25,3.1,4.9,43,0.00,,---,0.00,VWS V14.01,2013-04-09 16:46:00,
2013-04-09 10:51:00,25.9,6.5,29.96,NNE,27,0.0,2.7,43,0.00,,---,0.00,VWS V14.01,2013-04-09 16:51:00,
2013-04-09 10:56:00,25.9,6.5,29.96,NNE,28,4.0,4.5,43,0.00,,---,0.00,VWS V14.01,2013-04-09 16:56:00,
2013-04-09 11:01:00,25.9,6.0,29.96,NNE,17,0.0,0.0,42,0.00,,---,0.00,VWS V14.01,2013-04-09 17:01:00,
2013-04-09 11:06:00,26.1,6.1,29.93,ENE,67,0.0,4.0,42,0.00,,---,0.00,VWS V14.01,2013-04-09 17:06:00,
2013-04-09 11:12:00,27.1,6.6,29.93,NE,43,0.0,0.0,41,0.00,,---,0.00,VWS V14.01,2013-04-09 17:12:00,
2013-04-09 11:17:00,27.9,7.2,29.93,ENE,62,6.3,6.3,41,0.00,,---,0.00,VWS V14.01,2013-04-09 17:17:00,
2013-04-09 11:22:00,28.6,7.3,29.96,NE,40,5.4,5.8,40,0.00,,---,0.00,VWS V14.01,2013-04-09 17:22:00,
2013-04-09 11:27:00,28.9,7.1,29.96,NE,42,0.0,0.0,39,0.00,,---,0.00,VWS V14.01,2013-04-09 17:27:00,
2013-04-09 11:32:00,29.3,6.3,29.96,ESE,119,2.7,4.0,37,0.00,,---,0.00,VWS V14.01,2013-04-09 17:32:00,
2013-04-09 11:37:00,28.4,5.5,29.93,NNE,19,3.1,3.1,37,0.00,,---,0.00,VWS V14.01,2013-04-09 17:37:00,
2013-04-09 11:42:00,29.3,6.9,29.93,NW,326,3.6,3.6,38,0.00,,---,0.00,VWS V14.01,2013-04-09 17:42:00,
2013-04-09 11:47:00,29.1,6.1,29.93,NE,46,0.0,5.4,37,0.00,,---,0.00,VWS V14.01,2013-04-09 17:47:00,
2013-04-09 11:52:00,30.6,7.4,29.93,ENE,66,3.1,3.1,37,0.00,,---,0.00,VWS V14.01,2013-04-09 17:52:00,
2013-04-09 11:57:00,31.6,7.8,29.93,NE,44,2.7,7.2,36,0.00,,---,0.00,VWS V14.01,2013-04-09 17:57:00,
2013-04-09 12:02:00,32.4,7.1,29.93,ENE,65,4.9,4.9,34,0.00,,---,0.00,VWS V14.01,2013-04-09 18:02:00,
2013-04-09 12:07:00,32.9,7.6,29.93,NE,51,0.0,0.0,34,0.00,,---,0.00,VWS V14.01,2013-04-09 18:07:00,
2013-04-09 12:12:00,33.1,7.8,29.93,NE,47,5.4,6.3,34,0.00,,---,0.00,VWS V14.01,2013-04-09 18:12:00,
2013-04-09 12:17:00,33.1,7.8,29.93,NE,45,5.8,6.7,34,0.00,,---,0.00,VWS V14.01,2013-04-09 18:17:00,
2013-04-09 12:22:00,33.3,7.3,29.93,NNE,30,3.6,5.4,33,0.00,,---,0.00,VWS V14.01,2013-04-09 18:22:00,
2013-04-09 12:27:00,33.3,7.9,29.93,ENE,63,0.0,4.0,34,0.00,,---,0.00,VWS V14.01,2013-04-09 18:27:00,
2013-04-09 12:32:00,33.6,8.3,29.93,NE,48,8.3,8.3,34,0.00,,---,0.00,VWS V14.01,2013-04-09 18:32:00,
2013-04-09 12:37:00,33.8,7.8,29.93,NE,41,2.7,4.0,33,0.00,,---,0.00,VWS V14.01,2013-04-09 18:37:00,
2013-04-09 12:42:00,33.8,7.8,29.93,NNE,18,3.1,3.1,33,0.00,,---,0.00,VWS V14.01,2013-04-09 18:42:00,
2013-04-09 12:47:00,34.2,8.1,29.93,SE,129,3.6,5.4,33,0.00,,---,0.00,VWS V14.01,2013-04-09 18:47:00,
2013-04-09 12:52:00,34.3,7.6,29.91,ENE,75,5.4,7.6,32,0.00,,---,0.00,VWS V14.01,2013-04-09 18:52:00,
2013-04-09 12:57:00,34.5,7.7,29.91,NNE,30,2.7,5.8,32,0.00,,---,0.00,VWS V14.01,2013-04-09 18:57:00,
2013-04-09 13:02:00,34.9,8.0,29.91,ENE,63,4.0,5.8,32,0.00,,---,0.00,VWS V14.01,2013-04-09 19:02:00,
2013-04-09 13:07:00,35.2,7.7,29.93,NE,36,0.0,0.0,31,0.00,,---,0.00,VWS V14.01,2013-04-09 19:07:00,
2013-04-09 13:12:00,35.8,8.1,29.93,NNE,25,4.0,5.4,31,0.00,,---,0.00,VWS V14.01,2013-04-09 19:12:00,
2013-04-09 13:17:00,36.0,7.6,29.93,ENE,57,2.2,3.1,30,0.00,,---,0.00,VWS V14.01,2013-04-09 19:17:00,
2013-04-09 13:22:00,36.7,8.2,29.91,East,81,3.6,4.0,30,0.00,,---,0.00,VWS V14.01,2013-04-09 19:22:00,
2013-04-09 13:27:00,37.0,8.5,29.91,East,89,3.1,4.0,30,0.00,,---,0.00,VWS V14.01,2013-04-09 19:27:00,
2013-04-09 13:32:00,36.9,8.3,29.91,ENE,58,2.7,4.0,30,0.00,,---,0.00,VWS V14.01,2013-04-09 19:32:00,
2013-04-09 13:37:00,36.9,6.0,29.91,East,100,4.9,4.9,27,0.00,,---,0.00,VWS V14.01,2013-04-09 19:37:00,
2013-04-09 13:42:00,36.9,7.6,29.91,NE,54,5.4,5.4,29,0.00,,---,0.00,VWS V14.01,2013-04-09 19:42:00,
2013-04-09 13:47:00,37.9,8.5,29.91,North,3,0.0,2.2,29,0.00,,---,0.00,VWS V14.01,2013-04-09 19:47:00,
2013-04-09 13:53:00,38.5,6.6,29.91,NE,41,0.0,3.6,26,0.00,,---,0.00,VWS V14.01,2013-04-09 19:53:00,
2013-04-09 13:58:00,39.2,7.2,29.91,NNE,31,5.8,6.3,26,0.00,,---,0.00,VWS V14.01,2013-04-09 19:58:00,
2013-04-09 14:03:00,39.6,7.5,29.91,ENE,68,2.7,2.7,26,0.00,,---,0.00,VWS V14.01,2013-04-09 20:03:00,
2013-04-09 14:08:00,39.9,5.1,29.91,ESE,122,2.7,3.6,23,0.00,,---,0.00,VWS V14.01,2013-04-09 20:08:00,
2013-04-09 14:13:00,40.1,8.0,29.91,NE,39,0.0,0.0,26,0.00,,---,0.00,VWS V14.01,2013-04-09 20:13:00,
2013-04-09 14:18:00,40.5,8.3,29.91,NE,38,5.4,5.4,26,0.00,,---,0.00,VWS V14.01,2013-04-09 20:18:00,
2013-04-09 14:23:00,41.2,8.9,29.91,ENE,61,3.6,3.6,26,0.00,,---,0.00,VWS V14.01,2013-04-09 20:23:00,
2013-04-09 14:28:00,41.2,8.9,29.91,NE,54,2.2,4.0,26,0.00,,---,0.00,VWS V14.01,2013-04-09 20:28:00,
2013-04-09 14:33:00,40.6,8.4,29.91,North,6,3.1,4.9,26,0.00,,---,0.00,VWS V14.01,2013-04-09 20:33:00,
2013-04-09 14:38:00,41.0,6.1,29.91,NE,46,5.4,6.3,23,0.00,,---,0.00,VWS V14.01,2013-04-09 20:38:00,
2013-04-09 14:43:00,41.5,9.2,29.91,NE,42,0.0,3.1,26,0.00,,---,0.00,VWS V14.01,2013-04-09 20:43:00,
2013-04-09 14:48:00,40.8,8.6,29.91,ENE,57,2.7,5.8,26,0.00,,---,0.00,VWS V14.01,2013-04-09 20:48:00,
2013-04-09 14:53:00,41.4,10.7,29.91,North,8,2.2,3.1,28,0.00,,---,0.00,VWS V14.01,2013-04-09 20:53:00,
2013-04-09 14:58:00,41.9,11.2,29.91,NE,38,6.3,8.1,28,0.00,,---,0.00,VWS V14.01,2013-04-09 20:58:00,
2013-04-09 15:03:00,42.6,11.8,29.91,NE,36,2.7,6.3,28,0.00,,---,0.00,VWS V14.01,2013-04-09 21:03:00,
2013-04-09 15:08:00,42.3,11.5,29.91,NNE,26,5.8,5.8,28,0.00,,---,0.00,VWS V14.01,2013-04-09 21:08:00,
2013-04-09 15:13:00,42.4,11.7,29.91,ENE,64,6.3,9.6,28,0.00,,---,0.00,VWS V14.01,2013-04-09 21:13:00,
2013-04-09 15:18:00,41.5,9.2,29.91,NE,48,3.1,6.3,26,0.00,,---,0.00,VWS V14.01,2013-04-09 21:18:00,
2013-04-09 15:23:00,41.7,11.0,29.91,NNE,32,0.0,0.0,28,0.00,,---,0.00,VWS V14.01,2013-04-09 21:23:00,
2013-04-09 15:28:00,42.3,11.5,29.91,ENE,71,8.3,8.3,28,0.00,,---,0.00,VWS V14.01,2013-04-09 21:28:00,
2013-04-09 15:33:00,42.6,11.8,29.91,ESE,109,5.8,5.8,28,0.00,,---,0.00,VWS V14.01,2013-04-09 21:33:00,
2013-04-09 15:38:00,42.6,11.8,29.91,ENE,60,4.0,4.0,28,0.00,,---,0.00,VWS V14.01,2013-04-09 21:38:00,
2013-04-09 15:43:00,43.3,12.4,29.91,NE,50,4.0,7.6,28,0.00,,---,0.00,VWS V14.01,2013-04-09 21:43:00,
2013-04-09 15:48:00,43.5,12.6,29.91,NNE,32,2.2,6.3,28,0.00,,---,0.00,VWS V14.01,2013-04-09 21:48:00,
2013-04-09 15:53:00,43.7,12.8,29.88,ENE,69,5.4,8.1,28,0.00,,---,0.00,VWS V14.01,2013-04-09 21:53:00,
2013-04-09 15:58:00,43.9,12.9,29.88,East,84,7.6,7.6,28,0.00,,---,0.00,VWS V14.01,2013-04-09 21:58:00,
2013-04-09 16:03:00,44.1,13.1,29.88,ENE,62,2.7,6.3,28,0.00,,---,0.00,VWS V14.01,2013-04-09 22:03:00,
2013-04-09 16:08:00,43.9,12.9,29.88,ENE,75,7.6,7.6,28,0.00,,---,0.00,VWS V14.01,2013-04-09 22:08:00,
2013-04-09 16:13:00,43.9,12.9,29.88,ENE,67,7.6,8.1,28,0.00,,---,0.00,VWS V14.01,2013-04-09 22:13:00,
2013-04-09 16:18:00,44.2,13.2,29.88,NE,48,3.1,4.9,28,0.00,,---,0.00,VWS V14.01,2013-04-09 22:18:00,
2013-04-09 16:23:00,44.1,10.5,29.88,North,6,4.0,5.4,25,0.00,,---,0.00,VWS V14.01,2013-04-09 22:23:00,
2013-04-09 16:28:00,44.2,10.7,29.88,NE,51,4.0,6.3,25,0.00,,---,0.00,VWS V14.01,2013-04-09 22:28:00,
2013-04-09 16:33:00,44.4,10.8,29.88,ENE,64,6.7,6.7,25,0.00,,---,0.00,VWS V14.01,2013-04-09 22:33:00,
2013-04-09 16:38:00,44.4,10.8,29.88,NE,55,4.0,6.3,25,0.00,,---,0.00,VWS V14.01,2013-04-09 22:38:00,
2013-04-09 16:43:00,44.8,11.1,29.88,East,82,4.0,5.4,25,0.00,,---,0.00,VWS V14.01,2013-04-09 22:43:00,
2013-04-09 16:48:00,44.8,12.9,29.88,NNE,15,2.7,6.7,27,0.00,,---,0.00,VWS V14.01,2013-04-09 22:48:00,
2013-04-09 16:53:00,45.0,13.0,29.88,NE,39,0.0,4.9,27,0.00,,---,0.00,VWS V14.01,2013-04-09 22:53:00,
2013-04-09 16:58:00,45.0,13.0,29.88,NNE,13,3.6,10.1,27,0.00,,---,0.00,VWS V14.01,2013-04-09 22:58:00,
2013-04-09 17:03:00,44.8,12.9,29.88,NE,41,2.7,6.3,27,0.00,,---,0.00,VWS V14.01,2013-04-09 23:03:00,
2013-04-09 17:08:00,45.5,13.5,29.88,NE,43,4.9,6.3,27,0.00,,---,0.00,VWS V14.01,2013-04-09 23:08:00,
2013-04-09 17:13:00,45.7,13.6,29.88,ENE,75,2.2,6.3,27,0.00,,---,0.00,VWS V14.01,2013-04-09 23:13:00,
2013-04-09 17:18:00,45.9,13.8,29.88,NE,45,3.6,6.3,27,0.00,,---,0.00,VWS V14.01,2013-04-09 23:18:00,
2013-04-09 17:23:00,45.3,13.3,29.88,NNE,30,4.0,4.0,27,0.00,,---,0.00,VWS V14.01,2013-04-09 23:23:00,
2013-04-09 17:28:00,45.1,13.2,29.88,East,100,3.1,3.1,27,0.00,,---,0.00,VWS V14.01,2013-04-09 23:28:00,
2013-04-09 17:33:00,44.1,10.5,29.88,ESE,112,3.6,5.4,25,0.00,,---,0.00,VWS V14.01,2013-04-09 23:33:00,
2013-04-09 17:38:00,43.0,12.1,29.85,SE,137,4.5,4.5,28,0.00,,---,0.00,VWS V14.01,2013-04-09 23:38:00,
2013-04-09 17:43:00,42.8,12.0,29.85,NNE,15,4.9,4.9,28,0.00,,---,0.00,VWS V14.01,2013-04-09 23:43:00,
2013-04-09 17:48:00,43.5,12.6,29.85,East,87,4.9,4.9,28,0.00,,---,0.00,VWS V14.01,2013-04-09 23:48:00,
2013-04-09 17:53:00,43.5,12.6,29.88,NE,42,6.3,6.3,28,0.00,,---,0.00,VWS V14.01,2013-04-09 23:53:00,
2013-04-09 17:58:00,44.6,12.7,29.88,East,87,4.9,6.3,27,0.00,,---,0.00,VWS V14.01,2013-04-09 23:58:00,
2013-04-09 18:03:00,45.0,13.0,29.88,NNE,32,3.1,4.0,27,0.00,,---,0.00,VWS V14.01,2013-04-10 00:03:00,
2013-04-09 18:08:00,45.3,13.3,29.88,ENE,69,3.6,3.6,27,0.00,,---,0.00,VWS V14.01,2013-04-10 00:08:00,
2013-04-09 18:13:00,45.7,11.9,29.88,NE,39,4.0,6.3,25,0.00,,---,0.00,VWS V14.01,2013-04-10 00:13:00,
2013-04-09 18:18:00,45.3,11.6,29.88,NE,35,0.0,0.0,25,0.00,,---,0.00,VWS V14.01,2013-04-10 00:18:00,
2013-04-09 18:23:00,45.1,13.2,29.85,ENE,58,3.6,3.6,27,0.00,,---,0.00,VWS V14.01,2013-04-10 00:23:00,
2013-04-09 18:28:00,45.3,11.6,29.85,NE,37,0.0,2.7,25,0.00,,---,0.00,VWS V14.01,2013-04-10 00:28:00,
2013-04-09 18:33:00,45.3,11.6,29.85,East,81,3.6,3.6,25,0.00,,---,0.00,VWS V14.01,2013-04-10 00:33:00,
2013-04-09 18:38:00,44.1,10.5,29.88,NE,56,4.0,5.4,25,0.00,,---,0.00,VWS V14.01,2013-04-10 00:38:00,
2013-04-09 18:43:00,44.1,13.1,29.88,ENE,74,0.0,0.0,28,0.00,,---,0.00,VWS V14.01,2013-04-10 00:43:00,
2013-04-09 18:48:00,44.8,12.9,29.88,NE,56,0.0,0.0,27,0.00,,---,0.00,VWS V14.01,2013-04-10 00:48:00,
2013-04-09 18:53:00,44.6,11.0,29.88,ESE,106,3.6,5.8,25,0.00,,---,0.00,VWS V14.01,2013-04-10 00:53:00,
2013-04-09 18:58:00,43.9,12.9,29.88,East,80,0.0,0.0,28,0.00,,---,0.00,VWS V14.01,2013-04-10 00:58:00,
2013-04-09 19:03:00,44.2,13.2,29.88,NNE,27,0.0,0.0,28,0.00,,---,0.00,VWS V14.01,2013-04-10 01:03:00,
2013-04-09 19:08:00,44.4,13.4,29.88,NE,43,2.7,3.1,28,0.00,,---,0.00,VWS V14.01,2013-04-10 01:08:00,
2013-04-09 19:13:00,44.6,12.7,29.88,NE,44,0.0,0.0,27,0.00,,---,0.00,VWS V14.01,2013-04-10 01:13:00,
2013-04-09 19:18:00,44.8,12.9,29.88,NE,45,3.1,3.6,27,0.00,,---,0.00,VWS V14.01,2013-04-10 01:18:00,
2013-04-09 19:23:00,44.2,13.2,29.85,NE,55,4.5,4.5,28,0.00,,---,0.00,VWS V14.01,2013-04-10 01:23:00,
2013-04-09 19:28:00,43.9,12.9,29.85,NE,43,0.0,0.0,28,0.00,,---,0.00,VWS V14.01,2013-04-10 01:28:00,
2013-04-09 19:33:00,43.9,12.9,29.85,NE,48,0.0,0.0,28,0.00,,---,0.00,VWS V14.01,2013-04-10 01:33:00,
2013-04-09 19:38:00,43.7,12.8,29.85,NE,56,0.0,0.0,28,0.00,,---,0.00,VWS V14.01,2013-04-10 01:38:00,
2013-04-09 19:43:00,43.2,9.7,29.85,ENE,60,0.0,3.1,25,0.00,,---,0.00,VWS V14.01,2013-04-10 01:43:00,
2013-04-09 19:48:00,42.4,10.0,29.85,NE,49,0.0,0.0,26,0.00,,---,0.00,VWS V14.01,2013-04-10 01:48:00,
2013-04-09 19:53:00,41.7,9.4,29.85,NE,49,0.0,0.0,26,0.00,,---,0.00,VWS V14.01,2013-04-10 01:53:00,
2013-04-09 19:58:00,40.6,10.1,29.85,ENE,77,0.0,0.0,28,0.00,,---,0.00,VWS V14.01,2013-04-10 01:58:00,
2013-04-09 20:03:00,38.1,8.7,29.85,SE,144,0.0,0.0,29,0.00,,---,0.00,VWS V14.01,2013-04-10 02:03:00,
2013-04-09 20:08:00,37.0,8.5,29.85,SE,144,0.0,0.0,30,0.00,,---,0.00,VWS V14.01,2013-04-10 02:08:00,
2013-04-09 20:13:00,36.3,7.9,29.85,SE,144,0.0,0.0,30,0.00,,---,0.00,VWS V14.01,2013-04-10 02:13:00,
2013-04-09 20:18:00,36.0,7.6,29.85,SE,144,0.0,0.0,30,0.00,,---,0.00,VWS V14.01,2013-04-10 02:18:00,
2013-04-09 20:23:00,36.0,8.3,29.85,SE,144,0.0,0.0,31,0.00,,---,0.00,VWS V14.01,2013-04-10 02:23:00,
2013-04-09 20:28:00,35.6,8.0,29.85,SE,144,0.0,0.0,31,0.00,,---,0.00,VWS V14.01,2013-04-10 02:28:00,
2013-04-09 20:33:00,35.4,9.2,29.85,SE,144,0.0,0.0,33,0.00,,---,0.00,VWS V14.01,2013-04-10 02:33:00,
2013-04-09 20:38:00,34.9,8.0,29.85,WNW,298,2.2,2.7,32,0.00,,---,0.00,VWS V14.01,2013-04-10 02:38:00,
2013-04-09 20:43:00,34.5,7.7,29.85,West,273,0.0,0.0,32,0.00,,---,0.00,VWS V14.01,2013-04-10 02:43:00,
2013-04-09 20:48:00,34.2,8.1,29.85,West,272,0.0,0.0,33,0.00,,---,0.00,VWS V14.01,2013-04-10 02:48:00,
2013-04-09 20:53:00,34.0,7.9,29.88,WNW,297,0.0,0.0,33,0.00,,---,0.00,VWS V14.01,2013-04-10 02:53:00,
2013-04-09 20:58:00,33.8,7.8,29.88,WNW,290,0.0,0.0,33,0.00,,---,0.00,VWS V14.01,2013-04-10 02:58:00,
2013-04-09 21:03:00,33.6,8.3,29.88,West,269,3.1,3.1,34,0.00,,---,0.00,VWS V14.01,2013-04-10 03:03:00,
2013-04-09 21:08:00,33.3,7.9,29.88,WSW,254,0.0,0.0,34,0.00,,---,0.00,VWS V14.01,2013-04-10 03:08:00,
2013-04-09 21:13:00,33.3,7.9,29.88,WSW,255,0.0,0.0,34,0.00,,---,0.00,VWS V14.01,2013-04-10 03:13:00,
2013-04-09 21:18:00,32.9,8.3,29.88,WSW,251,0.0,0.0,35,0.00,,---,0.00,VWS V14.01,2013-04-10 03:18:00,
2013-04-09 21:23:00,32.5,7.9,29.88,WSW,251,0.0,0.0,35,0.00,,---,0.00,VWS V14.01,2013-04-10 03:23:00,
2013-04-09 21:28:00,32.5,7.9,29.88,WSW,258,0.0,0.0,35,0.00,,---,0.00,VWS V14.01,2013-04-10 03:28:00,
2013-04-09 21:33:00,32.4,8.4,29.88,West,279,0.0,0.0,36,0.00,,---,0.00,VWS V14.01,2013-04-10 03:33:00,
2013-04-09 21:38:00,32.0,8.1,29.88,SW,234,2.7,4.0,36,0.00,,---,0.00,VWS V14.01,2013-04-10 03:38:00,
2013-04-09 21:43:00,31.5,8.2,29.88,West,277,0.0,0.0,37,0.00,,---,0.00,VWS V14.01,2013-04-10 03:43:00,
2013-04-09 21:48:00,31.1,8.5,29.88,West,273,0.0,0.0,38,0.00,,---,0.00,VWS V14.01,2013-04-10 03:48:00,
2013-04-09 21:53:00,31.1,8.5,29.88,WSW,253,0.0,0.0,38,0.00,,---,0.00,VWS V14.01,2013-04-10 03:53:00,
2013-04-09 21:58:00,30.9,8.9,29.88,WSW,240,3.6,3.6,39,0.00,,---,0.00,VWS V14.01,2013-04-10 03:58:00,
2013-04-09 22:00:00,30.9,8.9,29.88,West,265,3.6,3.6,39,0.00,,---,0.00,VWS V14.01,2013-04-10 04:00:00,
2013-04-09 22:05:00,30.7,9.3,29.88,WSW,256,0.0,0.0,40,0.00,,---,0.00,VWS V14.01,2013-04-10 04:05:00,
2013-04-09 22:10:00,30.4,9.0,29.88,West,262,0.0,2.2,40,0.00,,---,0.00,VWS V14.01,2013-04-10 04:10:00,
2013-04-09 22:15:00,30.2,9.4,29.88,West,261,4.0,4.0,41,0.00,,---,0.00,VWS V14.01,2013-04-10 04:15:00,
2013-04-09 22:20:00,30.0,9.2,29.85,WNW,282,2.7,2.7,41,0.00,,---,0.00,VWS V14.01,2013-04-10 04:20:00,
2013-04-09 22:25:00,29.8,9.0,29.85,West,279,3.6,3.6,41,0.00,,---,0.00,VWS V14.01,2013-04-10 04:25:00,
2013-04-09 22:30:00,29.7,8.9,29.85,WSW,256,2.7,3.6,41,0.00,,---,0.00,VWS V14.01,2013-04-10 04:30:00,
2013-04-09 22:35:00,29.3,8.5,29.88,WSW,239,0.0,0.0,41,0.00,,---,0.00,VWS V14.01,2013-04-10 04:35:00,
2013-04-09 22:40:00,29.1,8.9,29.88,WSW,248,4.5,4.5,42,0.00,,---,0.00,VWS V14.01,2013-04-10 04:40:00,
2013-04-09 22:45:00,29.1,8.9,29.88,West,268,3.6,5.4,42,0.00,,---,0.00,VWS V14.01,2013-04-10 04:45:00,
2013-04-09 22:50:00,29.3,9.1,29.88,West,259,4.0,5.4,42,0.00,,---,0.00,VWS V14.01,2013-04-10 04:50:00,
2013-04-09 22:55:00,29.3,9.1,29.88,West,260,2.2,3.6,42,0.00,,---,0.00,VWS V14.01,2013-04-10 04:55:00,
2013-04-09 23:00:00,29.3,9.1,29.88,NW,312,7.2,7.2,42,0.00,,---,0.00,VWS V14.01,2013-04-10 05:00:00,
2013-04-09 23:05:00,29.1,8.9,29.88,West,267,3.6,3.6,42,0.00,,---,0.00,VWS V14.01,2013-04-10 05:05:00,
2013-04-09 23:10:00,28.9,8.7,29.88,WNW,297,2.7,2.7,42,0.00,,---,0.00,VWS V14.01,2013-04-10 05:10:00,
2013-04-09 23:15:00,28.8,8.6,29.88,WNW,288,4.0,4.0,42,0.00,,---,0.00,VWS V14.01,2013-04-10 05:15:00,
2013-04-09 23:20:00,28.6,8.4,29.85,West,276,0.0,0.0,42,0.00,,---,0.00,VWS V14.01,2013-04-10 05:20:00,
2013-04-09 23:25:00,28.4,8.8,29.85,West,276,0.0,0.0,43,0.00,,---,0.00,VWS V14.01,2013-04-10 05:25:00,
2013-04-09 23:30:00,28.4,8.8,29.85,WSW,245,0.0,0.0,43,0.00,,---,0.00,VWS V14.01,2013-04-10 05:30:00,
2013-04-09 23:35:00,28.2,8.6,29.88,WSW,245,0.0,0.0,43,0.00,,---,0.00,VWS V14.01,2013-04-10 05:35:00,
2013-04-09 23:40:00,28.0,8.4,29.88,WSW,245,0.0,0.0,43,0.00,,---,0.00,VWS V14.01,2013-04-10 05:40:00,
2013-04-09 23:45:00,28.0,8.9,29.88,West,262,0.0,0.0,44,0.00,,---,0.00,VWS V14.01,2013-04-10 05:45:00,
2013-04-09 23:50:00,27.9,8.8,29.88,WSW,252,0.0,0.0,44,0.00,,---,0.00,VWS V14.01,2013-04-10 05:50:00,
2013-04-09 23:55:00,27.7,8.6,29.88,WSW,252,0.0,0.0,44,0.00,,---,0.00,VWS V14.01,2013-04-10 05:55:00,